This demonstration page uses our WeatherBlox Daily Observations layout. Learn more.

39.92423, -83.80882

Hourly Observations for August 16, 2017

Temp ( °F °C ) Dew Point ( °F °C ) Humidity (%) Winds ( mph kmh ) Pressure ( in mb ) Visibility ( mi km ) Precip ( " mm )
12:56 am 00:56 Partly Cloudy 69 20.6 68 20 96 96 Calm 29.98 1015 10 16.0934 0 0
1:56 am 01:56 Cloudy 70 21.1 69 20.6 97 97 Calm 29.98 1015 10 16.0934 0 0
2:56 am 02:56 Mostly Cloudy 69 20.6 67 19.4 93 93 ENE 3 6 29.98 1015 10 16.0934 0 0
3:56 am 03:56 Clear with Mist and Fog 67 19.4 66 18.9 97 97 Calm 29.98 1015 5 8.0467 0 0
4:42 am 04:42 Mostly Cloudy with Mist and Fog 64 18 64 18 100 100 ENE 3 6 29.97 1015 1 1.60934 0 0
4:44 am 04:44 Mostly Cloudy with Fog 64 18 64 18 100 100 ENE 3 6 29.97 1015 0.5 0.80467 0 0
5:07 am 05:07 Mostly Cloudy with Mist and Fog 66 19 64 18 94 94 ESE 3 6 29.97 1015 1 1.60934 0 0
5:18 am 05:18 Partly Cloudy with Mist and Fog 64 18 64 18 100 100 ENE 3 6 30 1016 1.25 2.011675 0 0
5:20 am 05:20 Mostly Cloudy with Mist and Fog 64 18 64 18 100 100 ENE 5 7 30 1016 0.75 1.207005 0 0
5:22 am 05:22 Mostly Cloudy with Fog 64 18 64 18 100 100 ENE 5 7 30 1016 0.5 0.80467 0 0
5:24 am 05:24 Mostly Cloudy with Fog 64 18 63 17 94 94 E 3 6 30 1016 0.25 0.402335 0 0
5:33 am 05:33 Mostly Cloudy with Mist and Fog 64 18 64 18 100 100 ESE 3 6 30 1016 0.75 1.207005 0 0
5:52 am 05:52 Mostly Cloudy with Fog 64 18 64 18 100 100 Calm 30 1016 0.25 0.402335 0 0
5:56 am 05:56 Mostly Cloudy with Fog 65 18.3 64 17.8 97 97 Calm 30.01 1016 0.5 0.80467 0 0
6:00 am 06:00 Mostly Cloudy with Mist and Fog 66 19 66 19 100 100 Calm 30 1016 1 1.60934 0 0
6:05 am 06:05 Partly Cloudy with Mist and Fog 66 19 66 19 100 100 Calm 30 1016 1.75 2.816345 0 0
6:13 am 06:13 Mostly Clear with Mist and Fog 66 19 66 19 100 100 Calm 30 1016 2 3.21868 0 0
6:25 am 06:25 Clear with Mist and Fog 66 19 64 18 94 94 Calm 30 1016 1 1.60934 0 0
6:32 am 06:32 Clear with Mist and Fog 64 18 64 18 100 100 Calm 30 1016 0.75 1.207005 0 0
6:39 am 06:39 Mostly Cloudy with Fog 64 18 63 17 94 94 Calm 30 1016 0.25 0.402335 0 0
6:46 am 06:46 Mostly Cloudy with Fog 63 17 63 17 100 100 SE 3 6 30.03 1017 5 8.0467 0 0
6:56 am 06:56 Mostly Cloudy with Fog 63 17.2 63 17.2 100 100 E 3 6 30.03 1017 0.25 0.402335 0 0
7:41 am 07:41 Mostly Cloudy with Mist and Fog 64 18 64 18 100 100 ESE 3 6 30.03 1017 0.75 1.207005 0 0
7:43 am 07:43 Partly Cloudy with Mist and Fog 64 18 64 18 100 100 ESE 3 6 30.03 1017 1.5 2.41401 0 0
7:56 am 07:56 Partly Cloudy with Mist and Fog 66 18.9 66 18.9 100 100 ESE 5 7 30.04 1017 2.5 4.02335 0 0
8:23 am 08:23 Partly Cloudy with Mist and Fog 70 21 68 20 94 94 E 3 6 30.03 1017 3 4.82802 0 0
8:56 am 08:56 Partly Cloudy 72 22.2 69 20.6 91 91 SSE 3 6 30.05 1018 7 11.26538 0 0
9:56 am 09:56 Sunny 77 25 71 21.7 82 82 SSW 3 6 30.05 1018 10 16.0934 0 0
10:56 am 10:56 Sunny 82 27.8 70 21.1 67 67 WNW 3 6 30.05 1018 10 16.0934 0 0
11:56 am 11:56 Partly Cloudy 84 28.9 69 20.6 61 61 VRB 5 7 30.05 1018 10 16.0934 0 0
12:56 pm 12:56 Mostly Cloudy 86 30 69 20.6 57 57 VRB 5 7 30.04 1017 10 16.0934 0 0
1:56 pm 13:56 Mostly Sunny 85 29.4 69 20.6 59 59 VRB 5 7 30.03 1017 10 16.0934 0 0
2:56 pm 14:56 Sunny 86 30 68 20 55 55 Calm 30.01 1016 10 16.0934 0 0
3:56 pm 15:56 Sunny 87 30.6 69 20.6 55 55 VRB 3 6 29.99 1016 10 16.0934 0 0
4:56 pm 16:56 Partly Cloudy 87 30.6 70 21.1 57 57 VRB 5 7 29.97 1015 10 16.0934 0 0
5:56 pm 17:56 Sunny 85 29.4 69 20.6 59 59 S 3 6 29.96 1015 10 16.0934 0 0
6:56 pm 18:56 Sunny 82 27.8 72 22.2 72 72 ESE 5 7 29.96 1015 10 16.0934 0 0
8:56 pm 20:56 Clear 77 25 71 21.7 82 82 ESE 5 7 29.98 1015 10 16.0934 0 0
9:56 pm 21:56 Hazy 76 24.4 69 20.6 79 79 SSE 6 9 29.99 1016 4 6.43736 0 0
10:56 pm 22:56 Mostly Clear 74 23.3 71 21.7 91 91 SSE 5 7 29.99 1016 10 16.0934 0 0.0254
11:56 pm 23:56 Clear 71 21.7 69 20.6 94 94 SE 6 9 29.98 1015 9 14.48406 0 0

Powered by AerisWeather